Zurück zum Katalog

STARLINK-11265

AktivKommunikationVLEO
NORAD 60909·PAYLOAD·🇺🇸 United States

Gestartet Aug 31, 2024 von Cape Canaveral Space Force Station

Loading…

Nächste Überflüge (nächste 24 Stunden)

TLE

AktuellSource: CelesTrak SupGP

Epoche: Sep 15, 2026, 02:39 UTC

1 60909C 24154G   26258.11090278  .00048147  00000+0  39617-3 0  2581
2 60909  53.1576 277.8475 0001124  98.5044 137.2999 15.69711663    17

Verfolge STARLINK-11265 in Echtzeit mit AllMySat

Download on the App Store